weather.gov     
National Weather Service

Regional Weather Roundup
NWS Homepage
This page is being discontinued on March 12, 2014.
The same data is available at this site. Please update your bookmarks.
Thank you, and we apologize for the inconvenience.
Please send an email to SR-SRH.Webmaster@noaa.gov with any concerns.


Current Version
Previous Version:    01  02  03  04  05  06  07  08  09  10  11  12  13  14  15  16  17  18  19  20  21  22  23  24  25  26  27  28  29  30  
   31  32  33  34  35  36  37  38  39  40  41  42  43  44  45  46  47  48  49  50  51  52  53  54  55  56  57  58  59  60  
[Printable]
678
ASUS43 KJKL 230219
RWRJKL

EAST KENTUCKY HOURLY WEATHER ROUNDUP
NATIONAL WEATHER SERVICE JACKSON KY
900 PM EST MON DEC 22 2014

NOTE: "FAIR" INDICATES FEW OR NO CLOUDS BELOW 12,000 FEET WITH
NO SIGNIFICANT WEATHER AND/OR OBSTRUCTIONS TO VISIBILITY.

* THESE REPORTS ARE NOT UNDER NWS QUALITY CONTROL AND MAY NOT
  REPORT WEATHER SUCH AS PRECIPITATION AND FOG.

KYZ079-080-083-085-087-088-110-112-115-119-120-230300
...EASTERN KENTUCKY...

CITY           SKY/WX    TMP DP  RH WIND       PRES   REMARKS
JACKSON        CLOUDY    51  40  65 E6        29.82S
LONDON         CLOUDY    51  32  48 S5        29.80F
SOMERSET*      CLOUDY    52  43  71 S6        29.79S
MONTICELLO*    CLOUDY    54  46  76 S8        29.80S
MIDDLESBORO*   CLOUDY    47  45  91 W3        29.85S
HARLAN APT*    PTCLDY    54  39  58 SE3G21    29.84S
BLACK MTN*       N/A     43  39  87 VRB1        N/A
PIKEVILLE APT* CLEAR     52  39  62 SE9G16    29.84F
BIG SANDY*     PTCLDY    52  41  65 SE8       29.83F
MOREHEAD APT*  CLOUDY    52  41  66 SE5G14    29.81F
ASHLAND*       CLEAR     39  37  93 SE7       29.81F WCI  34
$$

KYZ035-036-041-042-044-050-067-078-099-230300
...CENTRAL KENTUCKY...

CITY           SKY/WX    TMP DP  RH WIND       PRES   REMARKS
MT STERLING*   CLOUDY    52  43  71 S7        29.79F
FLEMING/MASON* MOCLDY    45  37  76 E5        29.80S
DANVILLE*      CLOUDY    50  45  81 S7        29.77S
RICHMOND*      CLOUDY    52  43  71 SE6       29.77F
LEXINGTON      CLOUDY    52  43  71 SE9       29.75F
FRANKFORT      CLOUDY    52  43  71 SE9       29.73F
$$

KYZ091>093-OHZ055-061-077-WVZ005-015-034-035-042-230300
...SOUTHERN OHIO/WEST VIRGINIA...

CITY           SKY/WX    TMP DP  RH WIND       PRES   REMARKS
COVINGTON      CLOUDY    48  36  63 E12       29.75F
COLUMBUS       CLOUDY    46  34  62 E12       29.82F
DAYTON         CLOUDY    47  37  68 SE15      29.78F
WILMINGTON     CLOUDY    44  36  73 E8        29.78F
HUNTINGTON     CLOUDY    50  40  68 E6        29.83F
CHARLESTON     CLOUDY    48  38  68 VRB3      29.88S
PINEVILLE*     CLOUDY    46  40  82 MISG      29.98R
BECKLEY        CLOUDY    37  33  85 SE13G23   29.93S WCI  29
BLUEFIELD      CLOUDY    37  34  89 VRB5G25   29.95S WCI  33
$$

VAZ002-007-008-TNZ017-027-036-066-071-230300
...SOUTHWEST VIRGINIA/EAST TENNESSEE...

CITY           SKY/WX    TMP DP  RH WIND       PRES   REMARKS
WISE*          PTCLDY    45  36  70 SE12G18   29.88S
JONESVILLE*    CLOUDY    54  41  62 NE5       29.88S
ABINGDON*      MOCLDY    43  39  84 E8        29.92S
BRISTOL        MOCLDY    45  39  79 NE3       29.91F
KNOXVILLE      MOCLDY    48  45  89 SW5       29.82S
OAK RIDGE      LGT RAIN  50  47  89 CALM      29.84S
CROSSVILLE     RAIN      49  45  86 S7        29.81R FOG
NASHVILLE      CLOUDY    52  49  89 S15G21    29.72F
$$

...KEY TO REMARKS...
VSB - VISIBILITY IN MILES
WCI - WIND CHILL INDEX
HX  - HEAT INDEX

$$




U.S. Dept. of Commerce
NOAA National Weather Service
1325 East West Highway
Silver Spring, MD 20910
E-mail: w-nws.webmaster@noaa.gov
Page last modified: May 16, 2007
NATIONAL WEATHER SERVICE: for Safety, for Work, for Fun - FOR LIFE